QPF
0.31 0.36 0.37 0.33 0.23 0.18 0.10 0.05 0.04 0.02 0.01 0.01 0.01 0.00 0.00 0.00 0.00 0.00 0.00 0.00 0.00 0.00 0.00 0.00 0.00 0.00 0.00 0.00 0.00 0.00 0.00 0.00 0.00 0.00 0.00 0.00 0.00 0.00 0.00 0.00 0.00 0.00 0.01
0.24 0.27 0.28 0.23 0.15 0.10 0.06 0.03 0.02 0.01 0.01 0.00 0.00 0.00 0.00 0.00 0.00 0.00 0.00 0.00 0.00 0.00 0.00 0.00 0.00 0.00 0.00 0.00 0.00 0.00 0.00 0.00 0.00 0.00 0.00 0.00 0.00 0.00 0.00 0.00 0.00 0.00 0.01
0.18 0.19 0.20 0.14 0.10 0.06 0.03 0.02 0.01 0.01 0.00 0.00 0.00 0.00 0.00 0.00 0.00 0.00 0.00 0.00 0.00 0.00 0.00 0.00 0.00 0.00 0.00 0.00 0.00 0.00 0.00 0.00 0.00 0.00 0.00 0.00 0.00 0.00 0.00 0.00 0.00 0.00 0.00
0.14 0.16 0.14 0.11 0.08 0.04 0.02 0.01 0.01 0.00 0.00 0.00 0.00 0.00 0.00 0.00 0.00 0.00 0.00 0.00 0.00 0.00 0.00 0.00 0.00 0.00 0.00 0.00 0.00 0.00 0.00 0.00 0.00 0.00 0.00 0.00 0.00 0.00 0.00 0.00 0.00 0.00 0.00
0.06 0.12 0.10 0.08 0.06 0.04 0.02 0.01 0.00 0.00 0.00 0.00 0.00 0.00 0.00 0.00 0.00 0.00 0.00 0.00 0.00 0.00 0.00 0.00 0.00 0.00 0.00 0.00 0.00 0.00 0.00 0.00 0.00 0.00 0.00 0.00 0.00 0.00 0.00 0.00 0.00 0.00 0.00
0.02 0.05 0.05 0.04 0.03 0.02 0.01 0.00 0.00 0.00 0.00 0.00 0.00 0.00 0.00 0.00 0.00 0.00 0.00 0.00 0.00 0.00 0.00 0.00 0.00 0.00 0.00 0.00 0.00 0.00 0.00 0.00 0.00 0.00 0.00 0.00 0.00 0.00 0.00 0.00 0.00 0.00 0.00
0.00 0.01 0.01 0.02 0.01 0.01 0.00 0.00 0.00 0.00 0.00 0.00 0.00 0.00 0.00 0.00 0.00 0.00 0.00 0.00 0.00 0.00 0.00 0.00 0.00 0.00 0.00 0.00 0.00 0.00 0.00 0.00 0.00 0.00 0.00 0.00 0.00 0.00 0.00 0.00 0.00 0.00 0.00
0.00 0.00 0.00 0.00 0.00 0.00 0.00 0.00 0.00 0.00 0.00 0.00 0.00 0.00 0.00 0.00 0.00 0.00 0.00 0.00 0.00 0.00 0.00 0.00 0.00 0.00 0.00 0.00 0.00 0.00 0.00 0.00 0.00 0.00 0.00 0.00 0.00 0.00 0.00 0.00 0.00 0.00 0.00
0.00 0.00 0.00 0.00 0.00 0.00 0.00 0.00 0.00 0.00 0.00 0.00 0.00 0.00 0.00 0.00 0.00 0.00 0.00 0.00 0.00 0.00 0.00 0.00 0.00 0.00 0.00 0.00 0.00 0.00 0.00 0.00 0.00 0.00 0.00 0.00 0.00 0.00 0.00 0.00 0.00 0.00 0.00
0.00 0.00 0.00 0.00 0.00 0.00 0.00 0.00 0.00 0.00 0.00 0.00 0.00 0.00 0.00 0.00 0.00 0.00 0.00 0.00 0.00 0.00 0.00 0.00 0.00 0.00 0.00 0.00 0.00 0.00 0.00 0.00 0.00 0.00 0.00 0.00 0.00 0.00 0.00 0.00 0.00 0.00 0.00
0.00 0.00 0.00 0.00 0.00 0.00 0.00 0.00 0.00 0.00 0.00 0.00 0.00 0.00 0.00 0.00 0.00 0.00 0.00 0.00 0.00 0.00 0.00 0.00 0.00 0.00 0.00 0.00 0.00 0.00 0.00 0.00 0.00 0.00 0.00 0.00 0.00 0.00 0.00 0.00 0.00 0.00 0.00
0.00 0.00 0.00 0.00 0.00 0.00 0.00 0.00 0.00 0.00 0.00 0.00 0.00 0.00 0.00 0.00 0.00 0.00 0.00 0.00 0.00 0.00 0.00 0.00 0.00 0.00 0.00 0.00 0.00 0.00 0.00 0.00 0.00 0.00 0.00 0.00 0.00 0.00 0.00 0.00 0.00 0.00 0.00
0.00 0.00 0.00 0.00 0.00 0.00 0.00 0.00 0.00 0.00 0.00 0.00 0.00 0.00 0.00 0.00 0.00 0.00 0.00 0.00 0.00 0.00 0.00 0.00 0.00 0.00 0.00 0.00 0.00 0.00 0.00 0.00 0.00 0.00 0.00 0.00 0.00 0.00 0.00 0.00 0.00 0.00 0.00
0.00 0.00 0.00 0.00 0.00 0.00 0.00 0.00 0.00 0.00 0.00 0.00 0.00 0.00 0.00 0.00 0.00 0.00 0.00 0.00 0.00 0.00 0.00 0.00 0.00 0.00 0.00 0.00 0.00 0.00 0.00 0.00 0.00 0.00 0.00 0.00 0.00 0.00 0.00 0.00 0.00 0.00 0.00
0.00 0.00 0.00 0.00 0.00 0.00 0.00 0.00 0.00 0.00 0.00 0.00 0.00 0.00 0.00 0.00 0.00 0.00 0.00 0.00 0.00 0.00 0.00 0.00 0.00 0.00 0.00 0.00 0.00 0.00 0.00 0.00 0.00 0.00 0.00 0.00 0.00 0.00 0.00 0.00 0.00 0.00 0.00
0.00 0.00 0.00 0.00 0.00 0.00 0.00 0.00 0.00 0.00 0.00 0.00 0.00 0.00 0.00 0.00 0.00 0.00 0.00 0.00 0.00 0.00 0.00 0.00 0.00 0.00 0.00 0.00 0.00 0.00 0.00 0.00 0.00 0.00 0.00 0.00 0.00 0.00 0.00 0.00 0.00 0.00 0.00
0.01 0.00 0.01 0.01 0.00 0.00 0.00 0.00 0.00 0.00 0.00 0.00 0.00 0.00 0.00 0.00 0.00 0.00 0.00 0.00 0.00 0.00 0.00 0.00 0.00 0.00 0.00 0.00 0.00 0.00 0.00 0.00 0.00 0.00 0.00 0.00 0.00 0.00 0.00 0.00 0.00 0.00 0.00
0.01 0.01 0.01 0.01 0.01 0.01 0.01 0.01 0.01 0.00 0.00 0.00 0.01 0.01 0.01 0.01 0.01 0.01 0.00 0.00 0.00 0.00 0.00 0.00 0.00 0.00 0.00 0.00 0.00 0.00 0.00 0.00 0.00 0.00 0.00 0.00 0.00 0.00 0.00 0.00 0.00 0.00 0.00
0.02 0.01 0.01 0.01 0.01 0.01 0.01 0.01 0.01 0.01 0.01 0.01 0.01 0.02 0.02 0.02 0.02 0.02 0.02 0.01 0.01 0.00 0.00 0.01 0.01 0.00 0.00 0.00 0.00 0.00 0.00 0.00 0.00 0.00 0.00 0.00 0.00 0.00 0.00 0.00 0.00 0.00 0.00
0.01 0.01 0.01 0.01 0.01 0.01 0.01 0.01 0.01 0.01 0.02 0.02 0.02 0.04 0.04 0.04 0.04 0.03 0.03 0.03 0.02 0.03 0.03 0.02 0.01 0.01 0.01 0.01 0.01 0.01 0.00 0.00 0.00 0.00 0.00 0.00 0.00 0.00 0.00 0.00 0.00 0.00 0.00
0.01 0.01 0.01 0.01 0.01 0.01 0.02 0.02 0.02 0.02 0.03 0.04 0.05 0.05 0.06 0.06 0.06 0.05 0.05 0.05 0.05 0.05 0.04 0.02 0.01 0.01 0.01 0.01 0.01 0.01 0.01 0.00 0.00 0.00 0.00 0.00 0.00 0.00 0.00 0.00 0.00 0.00 0.00
0.01 0.01 0.00 0.00 0.01 0.01 0.01 0.02 0.03 0.04 0.04 0.04 0.05 0.06 0.07 0.08 0.08 0.07 0.06 0.05 0.04 0.03 0.03 0.02 0.02 0.02 0.02 0.02 0.02 0.02 0.01 0.01 0.01 0.01 0.00 0.00 0.00 0.00 0.00 0.00 0.00 0.00 0.00
0.00 0.00 0.00 0.00 0.00 0.01 0.01 0.01 0.02 0.02 0.02 0.03 0.04 0.05 0.05 0.05 0.04 0.04 0.04 0.04 0.04 0.03 0.02 0.02 0.02 0.02 0.02 0.02 0.02 0.02 0.02 0.02 0.02 0.01 0.01 0.01 0.01 0.01 0.00 0.00 0.00 0.00 0.00
0.00 0.00 0.00 0.00 0.00 0.00 0.00 0.00 0.00 0.00 0.01 0.01 0.02 0.02 0.02 0.02 0.02 0.03 0.03 0.03 0.03 0.02 0.02 0.03 0.02 0.02 0.02 0.02 0.02 0.03 0.03 0.02 0.02 0.01 0.01 0.01 0.01 0.01 0.01 0.01 0.01 0.00 0.00
0.00 0.00 0.00 0.00 0.00 0.00 0.00 0.00 0.00 0.00 0.00 0.01 0.01 0.01 0.01 0.01 0.02 0.02 0.02 0.02 0.01 0.01 0.02 0.02 0.01 0.01 0.01 0.01 0.02 0.03 0.02 0.02 0.02 0.02 0.02 0.02 0.01 0.01 0.01 0.01 0.01 0.01 0.01
0.00 0.00 0.00 0.00 0.00 0.00 0.00 0.00 0.00 0.00 0.00 0.00 0.00 0.00 0.00 0.01 0.01 0.01 0.01 0.01 0.01 0.01 0.01 0.01 0.01 0.01 0.01 0.01 0.02 0.03 0.03 0.03 0.04 0.04 0.02 0.02 0.02 0.02 0.02 0.02 0.02 0.01 0.01
MSLP
1013.64 1013.89 1014.11 1014.28 1014.41 1014.53 1014.67 1014.89 1015.20 1015.61 1016.10 1016.64 1017.17 1017.65 1018.03 1018.31 1018.47 1018.55 1018.59 1018.62 1018.68 1018.77 1018.90 1019.06 1019.20 1019.32 1019.39 1019.40 1019.36 1019.29 1019.21 1019.14 1019.10 1019.08 1019.07 1019.05 1019.00 1018.89 1018.72 1018.50 1018.25 1018.02 1017.84
1013.77 1014.13 1014.43 1014.66 1014.79 1014.88 1014.97 1015.11 1015.35 1015.69 1016.14 1016.65 1017.17 1017.65 1018.03 1018.30 1018.47 1018.55 1018.59 1018.63 1018.71 1018.84 1019.02 1019.22 1019.42 1019.58 1019.68 1019.70 1019.65 1019.56 1019.46 1019.36 1019.30 1019.28 1019.28 1019.28 1019.26 1019.19 1019.05 1018.84 1018.60 1018.34 1018.10
1013.77 1014.23 1014.62 1014.89 1015.05 1015.12 1015.17 1015.25 1015.42 1015.72 1016.13 1016.63 1017.14 1017.63 1018.03 1018.31 1018.49 1018.57 1018.62 1018.67 1018.76 1018.91 1019.12 1019.36 1019.60 1019.79 1019.91 1019.94 1019.90 1019.80 1019.68 1019.57 1019.51 1019.50 1019.52 1019.56 1019.58 1019.56 1019.46 1019.28 1019.04 1018.76 1018.48
1013.65 1014.18 1014.64 1014.97 1015.15 1015.22 1015.24 1015.28 1015.41 1015.67 1016.05 1016.54 1017.06 1017.56 1017.99 1018.30 1018.51 1018.62 1018.68 1018.74 1018.84 1019.00 1019.22 1019.48 1019.74 1019.95 1020.08 1020.13 1020.09 1019.99 1019.88 1019.78 1019.73 1019.73 1019.79 1019.86 1019.93 1019.95 1019.90 1019.76 1019.54 1019.26 1018.95
1013.43 1014.01 1014.53 1014.90 1015.11 1015.18 1015.18 1015.20 1015.30 1015.53 1015.89 1016.37 1016.91 1017.43 1017.89 1018.25 1018.49 1018.63 1018.72 1018.79 1018.90 1019.07 1019.29 1019.55 1019.81 1020.03 1020.18 1020.24 1020.22 1020.14 1020.04 1019.96 1019.93 1019.96 1020.04 1020.15 1020.26 1020.32 1020.31 1020.21 1020.02 1019.75 1019.43
1013.13 1013.75 1014.30 1014.71 1014.94 1015.03 1015.03 1015.03 1015.10 1015.31 1015.66 1016.13 1016.67 1017.22 1017.72 1018.11 1018.39 1018.58 1018.69 1018.79 1018.92 1019.08 1019.30 1019.55 1019.81 1020.03 1020.18 1020.26 1020.26 1020.20 1020.13 1020.08 1020.07 1020.12 1020.22 1020.36 1020.49 1020.60 1020.62 1020.56 1020.41 1020.16 1019.86
1012.79 1013.42 1013.99 1014.42 1014.68 1014.78 1014.79 1014.79 1014.85 1015.04 1015.37 1015.82 1016.36 1016.93 1017.45 1017.88 1018.20 1018.43 1018.58 1018.70 1018.84 1019.00 1019.21 1019.45 1019.70 1019.91 1020.07 1020.16 1020.18 1020.16 1020.11 1020.08 1020.09 1020.16 1020.28 1020.43 1020.58 1020.70 1020.76 1020.74 1020.63 1020.43 1020.16
1012.44 1013.05 1013.62 1014.07 1014.35 1014.47 1014.50 1014.50 1014.55 1014.72 1015.03 1015.47 1016.00 1016.56 1017.09 1017.55 1017.91 1018.17 1018.36 1018.51 1018.65 1018.82 1019.02 1019.24 1019.47 1019.68 1019.84 1019.93 1019.98 1019.97 1019.95 1019.95 1019.97 1020.05 1020.17 1020.32 1020.48 1020.61 1020.69 1020.71 1020.64 1020.49 1020.28
1012.08 1012.65 1013.21 1013.66 1013.95 1014.10 1014.15 1014.16 1014.22 1014.38 1014.67 1015.09 1015.60 1016.15 1016.68 1017.15 1017.53 1017.82 1018.04 1018.21 1018.37 1018.54 1018.72 1018.93 1019.14 1019.33 1019.48 1019.58 1019.64 1019.66 1019.66 1019.66 1019.70 1019.78 1019.89 1020.03 1020.18 1020.32 1020.42 1020.46 1020.44 1020.36 1020.21
1011.73 1012.25 1012.77 1013.20 1013.50 1013.67 1013.74 1013.77 1013.85 1014.01 1014.29 1014.69 1015.17 1015.70 1016.23 1016.70 1017.10 1017.41 1017.65 1017.84 1018.01 1018.17 1018.35 1018.53 1018.72 1018.89 1019.03 1019.13 1019.19 1019.22 1019.24 1019.26 1019.30 1019.37 1019.48 1019.60 1019.74 1019.87 1019.97 1020.04 1020.07 1020.04 1019.97
1011.40 1011.85 1012.31 1012.70 1012.99 1013.16 1013.26 1013.32 1013.42 1013.60 1013.88 1014.26 1014.73 1015.24 1015.75 1016.22 1016.63 1016.95 1017.21 1017.41 1017.59 1017.75 1017.92 1018.09 1018.25 1018.40 1018.53 1018.62 1018.68 1018.72 1018.74 1018.77 1018.81 1018.88 1018.97 1019.08 1019.20 1019.32 1019.42 1019.51 1019.57 1019.60 1019.59
1011.13 1011.47 1011.84 1012.17 1012.42 1012.59 1012.70 1012.80 1012.93 1013.13 1013.42 1013.81 1014.27 1014.76 1015.26 1015.72 1016.13 1016.46 1016.73 1016.95 1017.14 1017.30 1017.46 1017.61 1017.76 1017.89 1018.00 1018.09 1018.15 1018.19 1018.22 1018.25 1018.29 1018.36 1018.44 1018.53 1018.64 1018.74 1018.84 1018.94 1019.02 1019.08 1019.12
1010.94 1011.16 1011.41 1011.65 1011.84 1011.98 1012.09 1012.21 1012.37 1012.61 1012.92 1013.31 1013.77 1014.26 1014.74 1015.19 1015.59 1015.93 1016.22 1016.45 1016.64 1016.81 1016.97 1017.12 1017.25 1017.37 1017.47 1017.55 1017.60 1017.65 1017.69 1017.73 1017.78 1017.84 1017.92 1018.00 1018.09 1018.18 1018.28 1018.37 1018.45 1018.53 1018.60
1010.87 1010.94 1011.05 1011.17 1011.28 1011.37 1011.47 1011.60 1011.79 1012.05 1012.38 1012.79 1013.24 1013.72 1014.19 1014.63 1015.02 1015.36 1015.65 1015.89 1016.09 1016.28 1016.44 1016.59 1016.72 1016.83 1016.92 1017.00 1017.06 1017.11 1017.16 1017.21 1017.27 1017.34 1017.41 1017.50 1017.58 1017.67 1017.75 1017.83 1017.91 1017.98 1018.06
1010.95 1010.87 1010.82 1010.81 1010.81 1010.84 1010.91 1011.04 1011.24 1011.51 1011.86 1012.26 1012.71 1013.17 1013.62 1014.03 1014.41 1014.74 1015.02 1015.26 1015.48 1015.67 1015.84 1016.00 1016.13 1016.25 1016.34 1016.42 1016.49 1016.55 1016.61 1016.68 1016.75 1016.83 1016.92 1017.01 1017.09 1017.16 1017.23 1017.30 1017.36 1017.43 1017.49
1011.18 1010.95 1010.77 1010.62 1010.52 1010.48 1010.50 1010.61 1010.80 1011.07 1011.41 1011.80 1012.22 1012.65 1013.05 1013.43 1013.77 1014.07 1014.34 1014.57 1014.79 1014.99 1015.17 1015.34 1015.48 1015.61 1015.71 1015.80 1015.88 1015.95 1016.03 1016.11 1016.20 1016.29 1016.39 1016.49 1016.57 1016.64 1016.70 1016.76 1016.80 1016.84 1016.89
1011.55 1011.22 1010.92 1010.66 1010.47 1010.36 1010.34 1010.41 1010.57 1010.82 1011.13 1011.49 1011.85 1012.22 1012.56 1012.87 1013.15 1013.41 1013.64 1013.85 1014.06 1014.26 1014.45 1014.62 1014.78 1014.92 1015.04 1015.14 1015.22 1015.31 1015.39 1015.48 1015.58 1015.69 1015.80 1015.90 1015.99 1016.06 1016.12 1016.16 1016.19 1016.21 1016.23
1012.04 1011.65 1011.29 1010.96 1010.71 1010.55 1010.48 1010.51 1010.64 1010.85 1011.10 1011.39 1011.68 1011.96 1012.21 1012.43 1012.63 1012.81 1012.99 1013.17 1013.35 1013.54 1013.72 1013.90 1014.07 1014.21 1014.34 1014.44 1014.53 1014.61 1014.69 1014.78 1014.88 1014.99 1015.10 1015.21 1015.31 1015.39 1015.44 1015.48 1015.49 1015.50 1015.51
1012.60 1012.22 1011.85 1011.51 1011.23 1011.04 1010.94 1010.94 1011.03 1011.18 1011.36 1011.56 1011.75 1011.92 1012.06 1012.18 1012.28 1012.37 1012.48 1012.60 1012.74 1012.90 1013.07 1013.24 1013.41 1013.55 1013.66 1013.76 1013.83 1013.90 1013.96 1014.04 1014.12 1014.22 1014.32 1014.42 1014.52 1014.60 1014.66 1014.70 1014.72 1014.72 1014.72
1013.20 1012.88 1012.55 1012.24 1011.98 1011.79 1011.68 1011.66 1011.69 1011.78 1011.88 1011.98 1012.07 1012.12 1012.14 1012.14 1012.14 1012.14 1012.16 1012.22 1012.31 1012.43 1012.57 1012.72 1012.86 1012.98 1013.07 1013.14 1013.18 1013.21 1013.23 1013.26 1013.31 1013.37 1013.45 1013.54 1013.64 1013.72 1013.79 1013.84 1013.87 1013.88 1013.88
1013.80 1013.57 1013.32 1013.07 1012.86 1012.70 1012.59 1012.55 1012.55 1012.57 1012.59 1012.60 1012.57 1012.51 1012.43 1012.32 1012.22 1012.13 1012.08 1012.07 1012.10 1012.17 1012.27 1012.37 1012.47 1012.55 1012.59 1012.60 1012.58 1012.55 1012.51 1012.47 1012.46 1012.48 1012.52 1012.58 1012.67 1012.75 1012.84 1012.91 1012.96 1012.99 1013.01
1014.36 1014.24 1014.08 1013.91 1013.76 1013.63 1013.54 1013.48 1013.44 1013.41 1013.36 1013.28 1013.17 1013.02 1012.85 1012.66 1012.47 1012.31 1012.20 1012.12 1012.10 1012.12 1012.16 1012.20 1012.24 1012.25 1012.22 1012.15 1012.04 1011.92 1011.79 1011.67 1011.58 1011.53 1011.52 1011.55 1011.62 1011.71 1011.81 1011.91 1012.00 1012.07 1012.12
1014.88 1014.85 1014.77 1014.67 1014.57 1014.47 1014.38 1014.31 1014.24 1014.16 1014.05 1013.91 1013.74 1013.53 1013.29 1013.05 1012.82 1012.62 1012.45 1012.33 1012.26 1012.21 1012.19 1012.16 1012.11 1012.03 1011.90 1011.73 1011.52 1011.29 1011.05 1010.83 1010.65 1010.53 1010.46 1010.45 1010.50 1010.60 1010.72 1010.86 1010.99 1011.11 1011.20
1015.34 1015.36 1015.33 1015.27 1015.19 1015.10 1015.01 1014.92 1014.81 1014.68 1014.53 1014.36 1014.14 1013.91 1013.66 1013.40 1013.15 1012.93 1012.74 1012.59 1012.47 1012.36 1012.26 1012.15 1012.00 1011.81 1011.56 1011.27 1010.94 1010.59 1010.24 1009.91 1009.64 1009.44 1009.31 1009.27 1009.30 1009.41 1009.56 1009.74 1009.93 1010.10 1010.25
1015.71 1015.75 1015.73 1015.67 1015.59 1015.48 1015.36 1015.23 1015.08 1014.92 1014.74 1014.54 1014.32 1014.09 1013.85 1013.61 1013.38 1013.16 1012.97 1012.79 1012.63 1012.46 1012.28 1012.07 1011.81 1011.49 1011.12 1010.70 1010.24 1009.77 1009.30 1008.88 1008.52 1008.24 1008.07 1008.00 1008.03 1008.14 1008.33 1008.55 1008.80 1009.04 1009.25
1016.01 1016.02 1015.97 1015.88 1015.76 1015.61 1015.44 1015.26 1015.07 1014.87 1014.67 1014.46 1014.25 1014.04 1013.84 1013.63 1013.43 1013.24 1013.05 1012.86 1012.66 1012.42 1012.15 1011.83 1011.46 1011.01 1010.51 1009.97 1009.39 1008.80 1008.24 1007.73 1007.30 1006.97 1006.76 1006.67 1006.69 1006.83 1007.05 1007.32 1007.62 1007.92 1008.20
Thickness
5715 5717 5718 5720 5721 5722 5722 5723 5722 5722 5721 5718 5715 5712 5711 5710 5710 5710 5709 5707 5706 5705 5704 5702 5701 5701 5700 5699 5698 5697 5696 5695 5696 5696 5696 5697 5698 5699 5700 5701 5703 5704 5704
5714 5716 5717 5718 5720 5720 5721 5722 5722 5721 5721 5720 5717 5715 5712 5710 5709 5709 5708 5706 5705 5703 5702 5700 5699 5697 5696 5695 5695 5694 5692 5691 5691 5691 5689 5687 5690 5693 5695 5696 5697 5698 5699
5716 5717 5717 5718 5720 5720 5722 5724 5722 5722 5721 5720 5717 5714 5711 5709 5708 5707 5706 5705 5703 5702 5700 5698 5697 5695 5694 5692 5691 5690 5689 5687 5686 5686 5685 5682 5681 5683 5687 5689 5690 5692 5693
5720 5719 5720 5720 5722 5723 5725 5725 5723 5722 5721 5720 5718 5715 5710 5708 5708 5707 5706 5704 5702 5701 5699 5697 5695 5693 5691 5690 5689 5687 5686 5685 5683 5682 5681 5680 5679 5677 5678 5682 5684 5686 5687
5724 5724 5725 5725 5726 5726 5726 5725 5724 5722 5721 5720 5718 5715 5712 5710 5708 5706 5704 5703 5701 5700 5698 5696 5694 5692 5690 5688 5686 5684 5683 5681 5680 5678 5676 5675 5673 5672 5671 5671 5674 5677 5680
5730 5729 5729 5728 5727 5728 5728 5726 5724 5722 5721 5720 5718 5716 5713 5710 5707 5705 5702 5701 5700 5699 5698 5696 5693 5691 5689 5686 5684 5682 5681 5679 5677 5674 5673 5671 5669 5667 5665 5664 5664 5666 5671
5734 5731 5730 5729 5729 5729 5729 5728 5725 5723 5722 5720 5718 5717 5714 5711 5708 5706 5703 5701 5699 5698 5698 5696 5693 5691 5688 5685 5683 5680 5678 5676 5674 5672 5670 5668 5666 5664 5661 5659 5658 5658 5661
5737 5736 5736 5735 5734 5734 5732 5730 5728 5726 5724 5721 5719 5718 5715 5712 5709 5707 5704 5702 5700 5700 5698 5696 5693 5690 5687 5684 5681 5678 5676 5673 5671 5669 5667 5664 5662 5660 5657 5655 5652 5651 5652
5741 5741 5740 5739 5738 5737 5736 5734 5731 5728 5726 5723 5721 5718 5715 5712 5709 5707 5704 5702 5700 5699 5697 5694 5691 5688 5685 5682 5679 5675 5673 5670 5668 5665 5663 5660 5658 5656 5653 5651 5649 5646 5645
5743 5743 5743 5743 5742 5741 5739 5736 5733 5731 5728 5725 5722 5720 5717 5713 5710 5706 5703 5701 5699 5697 5695 5692 5689 5687 5683 5680 5676 5673 5670 5667 5664 5662 5659 5656 5654 5652 5649 5646 5644 5642 5640
5746 5746 5746 5746 5745 5742 5739 5736 5734 5731 5728 5725 5723 5720 5717 5713 5709 5705 5703 5701 5698 5695 5693 5690 5687 5684 5681 5678 5674 5671 5668 5664 5662 5659 5656 5653 5651 5647 5645 5642 5639 5637 5634
5751 5750 5749 5746 5743 5741 5740 5738 5736 5733 5731 5728 5724 5721 5717 5712 5708 5705 5702 5699 5696 5694 5691 5688 5684 5682 5678 5675 5671 5668 5665 5662 5659 5656 5652 5650 5647 5643 5641 5637 5635 5633 5630
5750 5749 5747 5745 5744 5743 5742 5740 5738 5736 5734 5729 5724 5719 5715 5711 5708 5705 5701 5697 5694 5691 5688 5685 5682 5679 5676 5672 5669 5666 5663 5660 5657 5653 5650 5647 5642 5639 5636 5633 5630 5628 5627
5748 5747 5745 5745 5745 5745 5744 5741 5740 5737 5733 5728 5723 5718 5715 5712 5708 5704 5699 5695 5692 5688 5685 5682 5680 5677 5673 5670 5666 5663 5660 5656 5653 5650 5647 5643 5640 5636 5633 5629 5626 5623 5620
5746 5745 5745 5744 5743 5742 5742 5741 5739 5736 5732 5725 5721 5718 5715 5710 5705 5700 5696 5692 5688 5686 5683 5679 5676 5673 5670 5667 5664 5660 5657 5653 5650 5647 5643 5640 5637 5634 5630 5626 5622 5618 5615
5740 5741 5742 5741 5740 5740 5739 5738 5735 5732 5728 5722 5719 5716 5711 5706 5701 5697 5693 5688 5685 5682 5678 5675 5672 5670 5668 5665 5662 5657 5653 5650 5646 5643 5640 5636 5633 5630 5627 5623 5619 5615 5610
5730 5733 5734 5734 5735 5736 5736 5733 5732 5728 5722 5717 5714 5710 5706 5701 5697 5693 5688 5684 5681 5677 5674 5672 5669 5667 5665 5661 5657 5653 5649 5646 5642 5639 5635 5632 5630 5625 5621 5618 5615 5611 5607
5718 5722 5724 5725 5726 5727 5727 5726 5723 5718 5713 5709 5705 5701 5697 5693 5689 5685 5682 5679 5675 5671 5669 5667 5665 5662 5660 5656 5652 5648 5644 5641 5638 5635 5631 5627 5624 5620 5615 5611 5608 5605 5602
5706 5709 5712 5714 5715 5716 5716 5714 5710 5706 5702 5699 5696 5693 5691 5687 5683 5678 5675 5672 5668 5665 5663 5662 5659 5656 5655 5652 5647 5641 5637 5635 5633 5630 5626 5622 5619 5615 5608 5604 5601 5599 5596
5696 5697 5699 5701 5702 5701 5702 5700 5696 5693 5689 5688 5686 5684 5682 5679 5676 5672 5668 5664 5661 5658 5655 5653 5651 5649 5648 5645 5640 5634 5630 5628 5627 5624 5621 5617 5613 5610 5603 5598 5595 5593 5591
5683 5684 5685 5685 5683 5684 5686 5683 5680 5677 5676 5676 5675 5672 5670 5668 5665 5662 5659 5655 5651 5648 5645 5643 5642 5640 5638 5636 5632 5626 5622 5621 5620 5618 5616 5613 5608 5603 5597 5592 5590 5589 5585
5671 5671 5670 5668 5668 5669 5670 5667 5664 5663 5663 5663 5661 5659 5656 5654 5652 5649 5646 5642 5639 5636 5634 5632 5631 5630 5628 5626 5623 5619 5614 5612 5609 5611 5610 5607 5601 5596 5591 5586 5584 5579 5573
5659 5658 5656 5655 5654 5654 5654 5651 5649 5649 5649 5647 5645 5643 5641 5638 5636 5633 5630 5627 5624 5621 5620 5618 5618 5618 5617 5615 5611 5609 5606 5602 5599 5601 5601 5598 5593 5587 5582 5579 5575 5570 5566
5646 5644 5643 5642 5640 5639 5638 5636 5635 5634 5633 5631 5628 5626 5623 5621 5619 5616 5613 5610 5607 5605 5604 5602 5602 5602 5601 5600 5599 5597 5595 5592 5589 5589 5589 5586 5581 5577 5574 5571 5567 5564 5562
5634 5633 5631 5629 5627 5626 5625 5624 5622 5620 5617 5615 5612 5610 5607 5604 5602 5599 5595 5593 5590 5586 5584 5584 5582 5582 5585 5585 5582 5579 5580 5579 5577 5575 5574 5573 5571 5568 5566 5563 5561 5557 5554
5625 5622 5620 5618 5616 5614 5613 5611 5609 5606 5602 5600 5597 5593 5590 5588 5585 5582 5580 5577 5573 5570 5566 5563 5561 5563 5562 5563 5562 5562 5561 5560 5558 5556 5561 5563 5563 5562 5560 5558 5555 5551 5549